Flag for Germany Past Weather in Neustadt an der Weinstraße, Rhineland-Palatinate, Germany — Yesterday and Last 2 Weeks

Now
7 °F

Ice fog.


Feels Like: 7 °F
Forecast: 21 / 27 °F
Wind: No wind

Location: Ramstein

Current Time: Jan 23, 2017 at 9:57:55 am

Latest Report: Jan 23, 2017 at 8:58 am


Visibility: 6 mi

Pressure: 30.36 "Hg

Humidity: 84%

Dew Point: 3 °F

Location of Neustadt an der WeinstraßeLocation

Past Weather in Neustadt an der Weinstraße — Graph

°F

Neustadt an der Weinstraße Temperature Yesterday

Maximum temperature yesterday: 32 °F (at 2:58 pm)
Minimum temperature yesterday: 7 °F (at 4:58 am)
Average temperature yesterday: 16 °F

High & Low Weather Summary for the Past Weeks

 TemperatureHumidityPressure
High43 °F (Jan 12, 11:37 pm)100% (Jan 8, 6:14 pm)30.64 "Hg (Jan 8, 6:14 pm)
Low4 °F (Jan 23, 7:58 am)40% (Jan 20, 3:58 pm)29.22 "Hg (Jan 13, 12:00 am)
Average29 °F86%30.15 "Hg
* Reported Jan 8 8:02 am — Jan 23 8:58 am, Neustadt an der Weinstraße, Weather by CustomWeather, © 2017

Note: Actual official high and low records may vary slightly from our data, if they occured in-between our weather recording intervals... More about our weather records

Advertising

Neustadt an der Weinstraße Weather History for the Previous 24 Hours

Scroll right to see more
 ConditionsComfort  
Time TempWeatherWind HumidityBarometerVisibility
8:58 am
Mon, Jan 23
7 °FIce fog.No wind85%30.36 "Hg6 mi
7:58 am4 °FIce fog.No wind85%30.36 "Hg6 mi
7:30 am7 °FPassing clouds.No wind78%30.27 "HgN/A
7:14 am5 °FPassing clouds.No wind85%30.27 "HgN/A
7:08 am7 °FPassing clouds.No wind85%30.27 "HgN/A
5:58 am7 °FClear.No wind78%30.36 "HgN/A
4:58 am5 °FClear.No wind84%30.34 "HgN/A
3:58 am7 °FClear.No wind86%30.34 "HgN/A
2:58 am5 °FClear.No wind92%30.32 "HgN/A
1:58 am7 °FClear.No wind87%30.34 "HgN/A
12:58 am9 °FIce fog.No wind85%30.34 "Hg6 mi
11:58 pm
Sun, Jan 22
10 °FClear.No wind92%30.35 "HgN/A
10:58 pm10 °FIce fog.No wind88%30.34 "Hg6 mi
9:58 pm10 °FIce fog.No wind92%30.35 "Hg6 mi
8:58 pm14 °FIce fog.No wind90%30.35 "Hg6 mi
7:58 pm15 °FClear.No wind91%30.34 "HgN/A
6:58 pm19 °FClear.No wind87%30.34 "HgN/A
5:58 pm23 °FClear.No wind76%30.33 "HgN/A
4:57 pm28 °FSunny.No wind64%30.31 "HgN/A
3:58 pm30 °FSunny.5 mph64%30.30 "HgN/A
2:58 pm32 °FSunny.3 mph60%30.30 "HgN/A
1:58 pm31 °FSunny.No wind60%30.31 "HgN/A
12:58 pm28 °FSunny.No wind64%30.33 "HgN/A
11:58 am25 °FSunny.No wind80%30.36 "HgN/A
10:58 am21 °FSunny.No wind80%30.38 "HgN/A
9:58 am14 °FSunny.No wind87%30.39 "HgN/A
Weather by CustomWeather, © 2017

See weather overviewHow to use our weather pages